Weather in Skagen

Denmark     57°43′21″N   10°35′00″E
temp.,
°C
wind,
m/s
gust,
m/s
humid.,
%
clouds,
%
prec.,
mm/h
press.,
hPa
HPBL,
m
7 march, sun
sun701:00+5w1722810 0.0 1014687
04:00+6w1420790 0.0 1013604
07:00+1e1414840 0.0 1014520
10:00+3nne7105214 0.0 10171250
13:00+3n89607 0.0 10191083
16:00+3n895182 0.0 10191362
19:00+3nne895481 0.0 1020970
22:00+3nne775518 0.0 1021950
8 march, mon
mon801:00+3nne665411 0.0 1023953
04:00+3nne55554 0.0 1022788
07:00+2ene32544 0.0 1023584
10:00+2sse325768 0.0 1023366
13:00+3ssw235384 0.0 1023529
16:00+3s225665 0.0 1022446
19:00+3s336082 0.0 1021485
22:00+2ssw5663100 0.0 1020327
9 march, tue
tue901:00+2sw6762100 0.0 1020391
04:00+2sw786622 0.0 1019458
07:00+1sw796711 0.0 1019480
10:00+2sw67700 0.0 1019543
13:00+3wsw45700 0.0 1019768
16:00+3w347347 0.0 1018483
19:00+3wsw247248 0.0 1018519
22:00+3s22740 0.0 1018176
10 march, wed
wed1001:00+3sse45744 0.0 1018410
04:00+3sse7878100 0.0 1016607
07:00+3sse101286100 0.0 1014750
10:00+4sse131589100 0.0 1012762
13:00+4sse141888100 0.0 1007839
16:00+4s152092100 1.9 10031153
19:00+4ssw101594100 5.6 1000546
22:00+5ssw61094100 0.4 998313
11 march, thu
thu1101:00+5s81394100 0.9 995387
04:00+4sse101396100 1.9 989350
07:00+5s121795100 7.0 982380
10:00+7sw121989100 3.6 978412
13:00+6ssw101887100 4.3 976560
16:00+6ssw112090100 1.6 973622
19:00+5wsw192589100 2.1 974935
22:00+5wsw162288100 0.1 978961